{"data":{"norad_id":57343,"intl_designator":"2023-099R","name":"STARLINK-6379","alt_names":[],"object_type":"PAYLOAD","status":"ACTIVE","operator":null,"country":"US","launch_date":"2023-07-16","launch_site_code":"AFETR","launch_vehicle":null,"mission":null,"orbit_class":"UNKNOWN","rcs_meters":null,"size_class":null,"mass_kg":null,"dimensions":null,"purposes":["comms"],"wikipedia_slug":null,"has_3d_model":false,"image_url":null,"decayed_at":null,"tle_current":{"epoch":"2026-05-25T03:09:27.410400Z","epoch_age_seconds":60517,"freshness":"FRESH","line1":"1 57343U 23099R   26145.13156725  .00000829  00000+0  39657-4 0  9995","line2":"2 57343  43.0004 180.9991 0000505 266.9167  93.1627 15.27573144157762","mean_motion":15.27573144,"eccentricity":5.05e-5,"inclination_deg":43.0004,"raan_deg":180.9991,"arg_perigee_deg":266.9167,"mean_anomaly_deg":93.1627,"bstar":3.9657e-5,"rev_number":15776,"period_min":94.267171798354,"perigee_km":482.72313451228,"apogee_km":483.41611638145,"semimajor_km":6861.2066254469,"source":"CELESTRAK","updated_at":"2026-05-25T13:38:18.288480Z"}}}